| time (UTC) | temp F | wind direction | speed MPH | gust MPH | rain 1hr in | rain 24hr in | rain mn in | humidity % | barometer mb |
| 20260510030732 | 52 | 343 | 5.0 | 7.0 | 0.00 | 0.00 | 0.00 | 64 | 1023.9 |
| 20260510025231 | 57 | 340 | 7.0 | 15.0 | 0.00 | 0.00 | 0.00 | 50 | 1023.0 |
| 20260510023731 | 54 | 311 | 0.0 | 0.0 | 0.00 | 0.00 | 0.00 | 51 | 1021.6 |
| 20260510022231 | 55 | 307 | 0.0 | 0.0 | 0.00 | 0.00 | 0.00 | 48 | 1021.1 |
| 20260510020730 | 57 | 305 | 0.0 | 0.0 | 0.00 | 0.00 | 0.00 | 43 | 1020.4 |
| 20260510015229 | 59 | 317 | 0.0 | 0.0 | 0.00 | 0.00 | 0.00 | 42 | 1020.5 |
| 20260510013729 | 59 | 335 | 0.0 | 0.0 | 0.00 | 0.00 | 0.00 | 38 | 1019.9 |
| 20260510012226 | 59 | 62 | 0.0 | 0.0 | 0.00 | 0.00 | 0.00 | 43 | 1020.2 |
| 20260510010724 | 60 | 2 | 0.0 | 0.0 | 0.00 | 0.00 | 0.00 | 41 | 1020.3 |
| 20260510005220 | 62 | 346 | 0.0 | 0.0 | 0.00 | 0.00 | 0.00 | 37 | 1020.3 |
| 20260510003719 | 63 | 9 | 0.0 | 0.0 | 0.00 | 0.00 | 0.00 | 36 | 1019.9 |
| 20260510002217 | 64 | 337 | 0.0 | 0.0 | 0.00 | 0.00 | 0.00 | 31 | 1019.2 |
| 20260510000713 | 64 | 303 | 0.0 | 0.0 | 0.00 | 0.00 | 0.00 | 29 | 1019.3 |
| 20260509235210 | 63 | 32 | 3.0 | 5.0 | 0.00 | 0.00 | 0.00 | 33 | 1019.2 |
| 20260509233707 | 63 | 83 | 2.0 | 3.0 | 0.00 | 0.00 | 0.00 | 32 | 1019.7 |
| 20260509232203 | 64 | 14 | 1.0 | 2.0 | 0.00 | 0.00 | 0.00 | 31 | 1019.7 |
| 20260509230700 | 65 | 21 | 3.0 | 7.0 | 0.00 | 0.00 | 0.00 | 30 | 1019.8 |
| 20260509225200 | 64 | 355 | 1.0 | 2.0 | 0.00 | 0.00 | 0.00 | 35 | 1019.9 |
| 20260509223656 | 64 | 72 | 5.0 | 6.0 | 0.00 | 0.00 | 0.00 | 34 | 1019.3 |
| 20260509222151 | 64 | 64 | 0.0 | 1.0 | 0.00 | 0.00 | 0.00 | 32 | 1019.6 |
| 20260509220651 | 65 | 45 | 0.0 | 0.0 | 0.00 | 0.00 | 0.00 | 30 | 1018.8 |
| 20260509215146 | 65 | 68 | 0.0 | 0.0 | 0.00 | 0.00 | 0.00 | 30 | 1019.2 |
| 20260509213643 | 66 | 58 | 0.0 | 0.0 | 0.00 | 0.00 | 0.00 | 30 | 1019.3 |
| 20260509212138 | 67 | 84 | 1.0 | 3.0 | 0.00 | 0.00 | 0.00 | 28 | 1018.8 |
| 20260509210634 | 69 | 247 | 0.0 | 0.0 | 0.00 | 0.00 | 0.00 | 22 | 1018.8 |
| 20260509205132 | 70 | 63 | 1.0 | 2.0 | 0.00 | 0.00 | 0.00 | 23 | 1019.3 |
| 20260509203632 | 72 | 47 | 0.0 | 0.0 | 0.00 | 0.00 | 0.00 | 23 | 1019.2 |
| 20260509202132 | 69 | 24 | 0.0 | 0.0 | 0.00 | 0.00 | 0.00 | 24 | 1019.3 |
| 20260509200632 | 70 | 18 | 2.0 | 3.0 | 0.00 | 0.00 | 0.00 | 24 | 1019.6 |
| 20260509195131 | 71 | 63 | 4.0 | 7.0 | 0.00 | 0.00 | 0.00 | 22 | 1019.4 |
| 20260509193629 | 69 | 354 | 0.0 | 0.0 | 0.00 | 0.00 | 0.00 | 24 | 1019.6 |
| 20260509192129 | 72 | 353 | 2.0 | 5.0 | 0.00 | 0.00 | 0.00 | 21 | 1019.4 |
| 20260509190628 | 70 | 318 | 0.0 | 0.0 | 0.00 | 0.00 | 0.00 | 24 | 1019.6 |
| 20260509185125 | 70 | 72 | 0.0 | 0.0 | 0.00 | 0.00 | 0.00 | 26 | 1019.7 |
| 20260509183622 | 70 | 11 | 0.0 | 1.0 | 0.00 | 0.00 | 0.00 | 21 | 1019.9 |
| 20260509182116 | 70 | 329 | 3.0 | 5.0 | 0.00 | 0.00 | 0.00 | 25 | 1019.9 |
| 20260509180614 | 70 | 332 | 0.0 | 0.0 | 0.00 | 0.00 | 0.00 | 22 | 1020.0 |
| 20260509175109 | 69 | 11 | 5.0 | 8.0 | 0.00 | 0.00 | 0.00 | 21 | 1019.9 |
| 20260509173607 | 69 | 317 | 7.0 | 8.0 | 0.00 | 0.00 | 0.00 | 22 | 1020.4 |
| 20260509172102 | 68 | 353 | 5.0 | 7.0 | 0.00 | 0.00 | 0.00 | 23 | 1020.5 |
| 20260509170556 | 68 | 354 | 3.0 | 6.0 | 0.00 | 0.00 | 0.00 | 22 | 1020.3 |
| 20260509165052 | 69 | 305 | 5.0 | 9.0 | 0.00 | 0.00 | 0.00 | 24 | 1020.2 |
| 20260509163548 | 67 | 290 | 6.0 | 7.0 | 0.00 | 0.00 | 0.00 | 24 | 1020.0 |
| 20260509162047 | 67 | 305 | 4.0 | 6.0 | 0.00 | 0.00 | 0.00 | 24 | 1020.2 |
| 20260509160546 | 68 | 332 | 5.0 | 6.0 | 0.00 | 0.00 | 0.00 | 23 | 1020.5 |
| 20260509155046 | 66 | 325 | 3.0 | 8.0 | 0.00 | 0.00 | 0.00 | 24 | 1020.3 |
| 20260509153543 | 62 | 294 | 3.0 | 7.0 | 0.00 | 0.00 | 0.00 | 31 | 1020.3 |
| 20260509152039 | 63 | 293 | 5.0 | 6.0 | 0.00 | 0.00 | 0.00 | 28 | 1020.3 |
| 20260509150536 | 64 | 282 | 5.0 | 7.0 | 0.00 | 0.00 | 0.00 | 32 | 1020.3 |
| 20260509145036 | 61 | 305 | 2.0 | 6.0 | 0.00 | 0.00 | 0.00 | 39 | 1020.5 |
| 20260509143534 | 58 | 310 | 4.0 | 5.0 | 0.00 | 0.00 | 0.00 | 42 | 1020.4 |
| 20260509142034 | 56 | 315 | 0.0 | 2.0 | 0.00 | 0.00 | 0.00 | 50 | 1020.3 |
| 20260509140531 | 55 | 297 | 0.0 | 0.0 | 0.00 | 0.00 | 0.00 | 58 | 1020.3 |
| 20260509135029 | 56 | 300 | 0.0 | 1.0 | 0.00 | 0.00 | 0.00 | 52 | 1020.4 |
| 20260509133525 | 55 | 308 | 0.0 | 1.0 | 0.00 | 0.00 | 0.00 | 58 | 1020.2 |
| 20260509132025 | 54 | 319 | 0.0 | 0.0 | 0.00 | 0.00 | 0.00 | 61 | 1020.4 |
| 20260509130525 | 51 | 296 | 0.0 | 0.0 | 0.00 | 0.00 | 0.00 | 65 | 1020.0 |
| 20260509125021 | 47 | 358 | 0.0 | 0.0 | 0.00 | 0.00 | 0.00 | 72 | 1020.0 |
| 20260509123519 | 45 | 282 | 0.0 | 0.0 | 0.00 | 0.00 | 0.00 | 75 | 1019.6 |
| 20260509122015 | 44 | 273 | 0.0 | 0.0 | 0.00 | 0.00 | 0.00 | 76 | 1019.6 |
| 20260509120513 | 41 | 288 | 0.0 | 0.0 | 0.00 | 0.00 | 0.00 | 79 | 1019.6 |
| 20260509115011 | 41 | 313 | 0.0 | 0.0 | 0.00 | 0.00 | 0.00 | 77 | 1019.4 |
| 20260509113511 | 42 | 308 | 0.0 | 0.0 | 0.00 | 0.00 | 0.00 | 76 | 1019.4 |
| 20260509112008 | 42 | 302 | 0.0 | 0.0 | 0.00 | 0.00 | 0.00 | 76 | 1019.6 |
| 20260509110504 | 41 | 308 | 0.0 | 0.0 | 0.00 | 0.00 | 0.00 | 77 | 1019.7 |
| 20260509105003 | 41 | 318 | 0.0 | 0.0 | 0.00 | 0.00 | 0.00 | 78 | 1019.6 |
| 20260509103500 | 41 | 278 | 0.0 | 0.0 | 0.00 | 0.00 | 0.00 | 79 | 1019.4 |
| 20260509101957 | 42 | 341 | 0.0 | 0.0 | 0.00 | 0.00 | 0.00 | 75 | 1019.7 |
| 20260509100454 | 42 | 321 | 0.0 | 0.0 | 0.00 | 0.00 | 0.00 | 77 | 1019.8 |
| 20260509094950 | 42 | 308 | 0.0 | 0.0 | 0.00 | 0.00 | 0.00 | 78 | 1019.9 |
| 20260509093448 | 43 | 284 | 0.0 | 0.0 | 0.00 | 0.00 | 0.00 | 76 | 1019.8 |
| 20260509091942 | 44 | 240 | 0.0 | 0.0 | 0.00 | 0.00 | 0.00 | 74 | 1019.8 |
| 20260509090438 | 44 | 306 | 0.0 | 0.0 | 0.00 | 0.00 | 0.00 | 76 | 1020.0 |
| 20260509084934 | 43 | 251 | 0.0 | 0.0 | 0.00 | 0.00 | 0.00 | 76 | 1020.2 |
| 20260509083432 | 44 | 301 | 0.0 | 0.0 | 0.00 | 0.00 | 0.00 | 73 | 1020.2 |
| 20260509081928 | 48 | 298 | 0.0 | 0.0 | 0.00 | 0.00 | 0.00 | 65 | 1020.3 |
| 20260509080427 | 49 | 106 | 0.0 | 0.0 | 0.00 | 0.00 | 0.00 | 63 | 1020.7 |
| 20260509074925 | 48 | 10 | 0.0 | 0.0 | 0.00 | 0.00 | 0.00 | 66 | 1020.5 |
| 20260509073421 | 46 | 295 | 0.0 | 0.0 | 0.00 | 0.00 | 0.00 | 70 | 1020.8 |
| 20260509071916 | 46 | 285 | 0.0 | 0.0 | 0.00 | 0.00 | 0.00 | 69 | 1020.8 |
| 20260509070413 | 45 | 303 | 0.0 | 0.0 | 0.00 | 0.00 | 0.00 | 72 | 1020.9 |
| 20260509064913 | 45 | 299 | 0.0 | 0.0 | 0.00 | 0.00 | 0.00 | 73 | 1021.3 |
| 20260509063409 | 46 | 273 | 0.0 | 0.0 | 0.00 | 0.00 | 0.00 | 71 | 1021.1 |
| 20260509061907 | 45 | 282 | 0.0 | 0.0 | 0.00 | 0.00 | 0.00 | 73 | 1021.4 |
| 20260509060404 | 46 | 261 | 0.0 | 0.0 | 0.00 | 0.00 | 0.00 | 71 | 1021.7 |
| 20260509054904 | 46 | 254 | 0.0 | 0.0 | 0.00 | 0.00 | 0.00 | 72 | 1021.9 |
| 20260509053401 | 47 | 272 | 0.0 | 0.0 | 0.00 | 0.00 | 0.00 | 70 | 1021.9 |
| 20260509051900 | 48 | 255 | 0.0 | 0.0 | 0.00 | 0.00 | 0.00 | 69 | 1021.9 |
| 20260509050357 | 49 | 291 | 0.0 | 0.0 | 0.00 | 0.00 | 0.00 | 64 | 1021.5 |
| 20260509044854 | 48 | 308 | 0.0 | 0.0 | 0.00 | 0.00 | 0.00 | 68 | 1021.9 |
| 20260509043350 | 46 | 307 | 0.0 | 0.0 | 0.00 | 0.00 | 0.00 | 74 | 1022.1 |
| 20260509041845 | 50 | 309 | 0.0 | 0.0 | 0.00 | 0.00 | 0.00 | 63 | 1021.6 |
| 20260509040344 | 50 | 338 | 0.0 | 0.0 | 0.00 | 0.00 | 0.00 | 63 | 1021.6 |
| 20260509034840 | 49 | 340 | 0.0 | 0.0 | 0.00 | 0.00 | 0.00 | 64 | 1021.6 |
| 20260509033338 | 50 | 338 | 0.0 | 0.0 | 0.00 | 0.00 | 0.00 | 62 | 1021.4 |
| 20260509031835 | 51 | 352 | 0.0 | 0.0 | 0.00 | 0.00 | 0.00 | 61 | 1021.3 |